Regional Weather Roundup
Issued by NWS

Home | Current Version | Previous Version | Graphics & Text | Print | Product List | Glossary On
Versions: 1 2 3 4 5 6 7 8 9 10 11 12 13 14 15 16 17 18 19 20 21 22 23 24 25 26 27 28 29 30 31 32 33 34 35 36 37 38 39 40 41 42 43 44 45 46 47 48 49 50
000
ASUS43 KFSD 070002
RWRSD

WEATHER ROUNDUP FOR SOUTH DAKOTA
NATIONAL WEATHER SERVICE SIOUX FALLS SD
600 PM CST SAT FEB 06 2016

NOTE: "FAIR" INDICATES FEW OR NO CLOUDS BELOW 12,000 FEET WITH NO
SIGNIFICANT WEATHER AND/OR OBSTRUCTIONS TO VISIBILITY.


SDZ001>005-009-010-012>017-070100-
NORTHWEST AND NORTH CENTRAL SOUTH DAKOTA

CITY           SKY/WX    TMP DP  RH WIND       PRES   REMARKS
BUFFALO          N/A     42  20  41 W28G35    29.80F
FAITH            N/A     41  28  60 W29G37    29.86R
MOBRIDGE       CLOUDY    52  22  30 W20G31    29.74R
$$

SDZ012>016-024>037-041>051-057-063-072>074-070100-
SOUTHWEST AND SOUTH CENTRAL SOUTH DAKOTA

CITY           SKY/WX    TMP DP  RH WIND       PRES   REMARKS
RAPID CTY ARPT CLOUDY    42  29  59 N29G46    29.91R
PIERRE         PTCLDY    46  29  51 W14       29.81R
CUSTER         CLOUDY    36  20  52 W10       29.92R
PHILIP         CLOUDY    42  30  62 W10       29.86R
PINE RIDGE     CLOUDY    44  25  47 W16G28    29.91S
WINNER         FAIR      42  28  57 SW8       29.84R
$$

SDZ004>011-016>023-039-040-070100-
NORTHEAST SOUTH DAKOTA

CITY           SKY/WX    TMP DP  RH WIND       PRES   REMARKS
ABERDEEN       CLOUDY    39  32  76 S8        29.77R
WATERTOWN      CLOUDY    33  27  78 S9        29.77F WCI  25
BROOKINGS      CLOUDY    33  28  81 S10       29.81S WCI  25
SISSETON         N/A     38  30  73 W20G28    29.73R
$$

SDZ017-020-022-023-036>040-048>070-070100-
SOUTHEAST SOUTH DAKOTA

CITY           SKY/WX    TMP DP  RH WIND       PRES   REMARKS
SIOUX FALLS    CLOUDY    34  26  72 SW10      29.86F WCI  26
HURON          CLOUDY    37  31  78 S5        29.80S
MITCHELL       CLOUDY    40  32  73 S9        29.83S
YANKTON        CLOUDY    37  27  65 SW14      29.87F
$$

ABBREVIATIONS USED IN REMARKS
   TC - TEMPERATURE IN CELSIUS
  WCI - WIND CHILL INDEX
   HX - HEAT INDEX
  VSB - VISIBILITY




USA.gov is the U.S. government's official web portal to all federal, state and local government web resources and services.